Date String (YYYY-MM-DD hh:mm:ss) UTC,Instrument flags,absolute air pressure of the measurement (hPa),sample flow rate (lpm),inlet stack bypass flow (lpm),air temperature of the measurement (°C),ambient temperature measured by the external sensor (°C),aerosol sample conditioner tube jacket temperature (°C),OPC LED temperature (°C),internal box temperature (°C),relative humidity of the measurement (%),span deviation,mass concentration of particles derived from Lorenz-Mie calculation of OPC scattering (μg/m³),mass concentration of particles derived from Lorenz-Mie calculation of OPC scattering (μg/m³),mass concentration of particles derived from Lorenz-Mie calculation of OPC scattering (μg/m³)
DateTimeUTC,F1_M11,P_M11,Q1_M11,Q2_M11,T1_M11,T2_M11,T3_M11,T4_M11,T5_M11,U1_M11,ZSPAN_M11,X0_M11,X2_M11,X1_M11
2024-02-16 07:00:00,SystemResetWarning,0829.7,5.00,000.00,019.2,018.6,000.0,027.8,020.9,19.7,0000.0,0005.34,0002.63,0002.51
2024-02-16 07:01:00,SystemResetWarning,0829.7,5.01,000.00,019.1,018.5,000.0,027.8,020.8,19.6,0000.0,0005.26,0002.56,0002.43
2024-02-16 07:02:00,SystemResetWarning,0829.7,5.01,000.00,019.1,018.5,000.0,027.7,020.8,19.6,0000.0,0005.11,0002.48,0002.36
2024-02-16 07:03:00,SystemResetWarning,0829.7,5.00,000.00,019.1,018.5,000.0,027.7,020.8,19.5,0000.0,0003.48,0002.42,0002.30
2024-02-16 07:04:00,SystemResetWarning,0829.7,4.99,000.00,019.1,018.5,000.0,027.7,020.8,19.5,0000.0,0003.42,0002.39,0002.26
2024-02-16 07:05:00,SystemResetWarning,0829.7,5.00,000.00,019.1,018.5,000.0,027.7,020.8,19.5,0000.0,0003.02,0002.35,0002.24
2024-02-16 07:06:00,SystemResetWarning,0829.7,5.00,000.00,019.1,018.5,000.0,027.7,020.8,19.4,0000.0,0002.76,0002.33,0002.22
2024-02-16 07:07:00,SystemResetWarning,0829.7,5.00,000.00,019.0,018.4,000.0,027.7,020.7,19.3,0000.0,0002.72,0002.30,0002.20
2024-02-16 07:08:00,SystemResetWarning,0829.7,5.00,000.00,019.0,018.4,000.0,027.6,020.7,19.3,0000.0,0002.62,0002.25,0002.18
2024-02-16 07:09:00,SystemResetWarning,0829.7,5.01,000.00,019.0,018.4,000.0,027.6,020.7,19.2,0000.0,0002.61,0002.24,0002.15
2024-02-16 07:10:00,SystemResetWarning,0829.8,5.00,000.00,019.0,018.4,000.0,027.6,020.7,19.2,0000.0,0002.57,0002.21,0002.13
2024-02-16 07:11:00,SystemResetWarning,0829.9,5.00,000.00,019.0,018.4,000.0,027.6,020.7,19.1,0000.0,0002.63,0002.21,0002.09
2024-02-16 07:12:00,SystemResetWarning,0829.9,5.00,000.00,019.0,018.4,000.0,027.6,020.7,19.0,0000.0,0002.63,0002.18,0002.06
2024-02-16 07:13:00,SystemResetWarning,0829.9,5.00,000.00,019.0,018.4,000.0,027.6,020.7,19.0,0000.0,0002.64,0002.18,0002.03
2024-02-16 07:14:00,SystemResetWarning,0830.0,5.00,000.00,018.9,018.4,000.0,027.6,020.6,19.0,0000.0,0002.55,0002.17,0002.02
2024-02-16 07:15:00,SystemResetWarning,0830.0,5.00,000.00,018.9,018.3,000.0,027.5,020.6,18.9,0000.0,0002.47,0002.14,0002.00
2024-02-16 07:16:00,SystemResetWarning,0830.0,5.00,000.00,018.9,018.3,000.0,027.5,020.6,19.0,0000.0,0002.11,0002.12,0001.97
2024-02-16 07:17:00,SystemResetWarning,0830.0,5.00,000.00,018.9,018.3,000.0,027.5,020.6,19.0,0000.0,0002.11,0002.10,0001.95
2024-02-16 07:18:00,SystemResetWarning,0830.0,5.00,000.00,018.9,018.3,000.0,027.5,020.6,19.0,0000.0,0002.09,0002.08,0001.93
2024-02-16 07:19:00,SystemResetWarning,0830.0,5.00,000.00,018.9,018.3,000.0,027.5,020.6,19.0,0000.0,0002.75,0002.06,0001.92
2024-02-16 07:20:00,SystemResetWarning,0830.0,5.00,000.00,018.8,018.3,000.0,027.5,020.5,19.1,0000.0,0003.05,0002.02,0001.91
2024-02-16 07:21:00,SystemResetWarning,0830.0,4.99,000.00,018.8,018.3,000.0,027.5,020.5,19.1,0000.0,0003.04,0002.01,0001.90
2024-02-16 07:22:00,SystemResetWarning,0830.0,4.99,000.00,018.8,018.3,000.0,027.4,020.5,19.2,0000.0,0002.96,0001.99,0001.91
2024-02-16 07:23:00,SystemResetWarning,0830.0,4.99,000.00,018.8,018.3,000.0,027.4,020.5,19.2,0000.0,0002.95,0001.98,0001.90
2024-02-16 07:24:00,SystemResetWarning,0830.1,5.01,000.00,018.8,018.3,000.0,027.4,020.5,19.2,0000.0,0003.01,0001.95,0001.88
2024-02-16 07:25:00,SystemResetWarning,0830.0,5.00,000.00,018.8,018.3,000.0,027.4,020.5,19.3,0000.0,0002.97,0001.93,0001.87
2024-02-16 07:26:00,SystemResetWarning,0830.0,5.00,000.00,018.8,018.2,000.0,027.4,020.5,19.3,0000.0,0002.97,0001.93,0001.87
2024-02-16 07:27:00,SystemResetWarning,0830.0,4.99,000.00,018.8,018.2,000.0,027.4,020.4,19.3,0000.0,0002.97,0001.93,0001.86
2024-02-16 07:28:00,SystemResetWarning,0830.0,4.99,000.00,018.7,018.2,000.0,027.3,020.4,19.3,0000.0,0002.98,0001.93,0001.86
2024-02-16 07:29:00,SystemResetWarning,0830.0,5.00,000.00,018.7,018.2,000.0,027.3,020.4,19.3,0000.0,0003.00,0001.93,0001.85
2024-02-16 07:30:00,SystemResetWarning,0830.0,5.01,000.00,018.7,018.2,000.0,027.3,020.4,19.3,0000.0,0002.65,0001.93,0001.85
2024-02-16 07:31:00,SystemResetWarning,0830.0,5.00,000.00,018.7,018.2,000.0,027.3,020.4,19.2,0000.0,0001.97,0001.92,0001.84
2024-02-16 07:32:00,SystemResetWarning,0830.0,5.00,000.00,018.7,018.2,000.0,027.3,020.4,19.1,0000.0,0002.01,0001.92,0001.83
2024-02-16 07:33:00,SystemResetWarning,0830.0,4.99,000.00,018.7,018.2,000.0,027.3,020.4,19.0,0000.0,0001.98,0001.90,0001.82
2024-02-16 07:34:00,SystemResetWarning,0830.0,4.99,000.00,018.7,018.1,000.0,027.3,020.4,19.0,0000.0,0001.96,0001.89,0001.82
2024-02-16 07:35:00,SystemResetWarning,0829.9,5.02,000.00,018.7,018.1,000.0,027.3,020.3,19.0,0000.0,0001.87,0001.88,0001.82
2024-02-16 07:36:00,SystemResetWarning,0829.9,5.01,000.00,018.6,018.1,000.0,027.2,020.3,18.9,0000.0,0001.92,0001.91,0001.83
2024-02-16 07:37:00,SystemResetWarning,0830.0,5.00,000.00,018.6,018.1,000.0,027.2,020.3,18.9,0000.0,0001.99,0001.93,0001.84
2024-02-16 07:38:00,SystemResetWarning,0830.0,5.00,000.00,018.6,018.1,000.0,027.2,020.3,19.0,0000.0,0002.00,0001.93,0001.84
2024-02-16 07:39:00,SystemResetWarning,0830.0,5.00,000.00,018.6,018.1,000.0,027.2,020.3,19.0,0000.0,0001.98,0001.92,0001.84
2024-02-16 07:40:00,SystemResetWarning,0830.0,5.00,000.00,018.6,018.0,000.0,027.2,020.3,19.0,0000.0,0001.95,0001.92,0001.85
2024-02-16 07:41:00,SystemResetWarning,0830.1,5.00,000.00,018.6,018.0,000.0,027.2,020.3,18.9,0000.0,0001.96,0001.93,0001.86
2024-02-16 07:42:00,SystemResetWarning,0830.1,5.00,000.00,018.6,018.0,000.0,027.2,020.3,18.9,0000.0,0001.97,0001.95,0001.87
2024-02-16 07:43:00,SystemResetWarning,0830.1,5.00,000.00,018.5,018.0,000.0,027.2,020.2,18.9,0000.0,0001.95,0001.95,0001.89
2024-02-16 07:44:00,SystemResetWarning,0830.1,5.00,000.00,018.5,018.0,000.0,027.1,020.2,18.9,0000.0,0002.04,0002.00,0001.91
2024-02-16 07:45:00,SystemResetWarning,0830.1,5.00,000.00,018.5,018.0,000.0,027.1,020.2,18.9,0000.0,0002.07,0002.02,0001.93
2024-02-16 07:46:00,SystemResetWarning,0830.2,5.00,000.00,018.5,018.0,000.0,027.1,020.2,18.8,0000.0,0002.08,0002.03,0001.95
2024-02-16 07:47:00,SystemResetWarning,0830.2,5.00,000.00,018.5,017.9,000.0,027.1,020.2,18.8,0000.0,0002.08,0002.04,0001.96
2024-02-16 07:48:00,SystemResetWarning,0830.2,5.00,000.00,018.5,017.9,000.0,027.1,020.2,18.8,0000.0,0002.05,0002.03,0001.96
2024-02-16 07:49:00,SystemResetWarning,0830.2,5.02,000.00,018.5,017.9,000.0,027.1,020.2,18.8,0000.0,0002.13,0002.05,0001.99
2024-02-16 07:50:00,SystemResetWarning,0830.3,4.99,000.00,018.5,017.9,000.0,027.1,020.1,18.8,0000.0,0002.15,0002.07,0002.01
2024-02-16 07:51:00,SystemResetWarning,0830.2,4.99,000.00,018.4,017.9,000.0,027.1,020.1,18.8,0000.0,0002.16,0002.08,0002.02
2024-02-16 07:52:00,SystemResetWarning,0830.1,4.99,000.00,018.4,017.9,000.0,027.0,020.1,18.8,0000.0,0002.19,0002.10,0002.04
2024-02-16 07:53:00,SystemResetWarning,0830.2,5.00,000.00,018.4,017.9,000.0,027.0,020.1,18.7,0000.0,0002.23,0002.12,0002.04
2024-02-16 07:54:00,SystemResetWarning,0830.2,5.01,000.00,018.4,017.9,000.0,027.0,020.1,18.6,0000.0,0002.28,0002.15,0002.06
2024-02-16 07:55:00,SystemResetWarning,0830.2,4.99,000.00,018.4,017.9,000.0,027.0,020.1,18.5,0000.0,0002.20,0002.13,0002.07
2024-02-16 07:56:00,SystemResetWarning,0830.3,4.99,000.00,018.4,017.8,000.0,027.0,020.1,18.4,0000.0,0002.21,0002.15,0002.07
2024-02-16 07:57:00,SystemResetWarning,0830.3,5.00,000.00,018.4,017.8,000.0,027.0,020.0,18.3,0000.0,0002.53,0002.17,0002.08
2024-02-16 07:58:00,SystemResetWarning,0830.3,5.01,000.00,018.3,017.8,000.0,027.0,020.0,18.3,0000.0,0002.59,0002.20,0002.11
2024-02-16 07:59:00,SystemResetWarning,0830.2,5.01,000.00,018.3,017.8,000.0,027.0,020.0,18.2,0000.0,0002.56,0002.21,0002.13
